{"data":{"norad_id":67659,"epoch":"2026-09-19T21:24:47.774304Z","epoch_age_seconds":121439,"freshness":"FRESH","line1":"1 67659U 26022M   26262.89221961  .00013425  00000+0  41731-3 0  9994","line2":"2 67659  97.2849 294.4581 0001119 111.3548 248.7814 15.33454836 35332","mean_motion":15.33454836,"eccentricity":0.0001119,"inclination_deg":97.2849,"raan_deg":294.4581,"arg_perigee_deg":111.3548,"mean_anomaly_deg":248.7814,"bstar":0.00041731,"rev_number":3533,"period_min":93.905602316676,"perigee_km":464.74810508199,"apogee_km":466.27971415556,"semimajor_km":6843.6509096188,"source":"CELESTRAK","updated_at":"2026-09-20T09:00:43.621428Z"}}